Terug naar catalogus

HULIANWANG DIGUI-94

ActiefCommunicatieLEO
NORAD 66002·PAYLOAD·🇨🇳 China

Gelanceerd Oct 16, 2025 vanaf Wenchang Space Launch Site

Loading…

Volgende Passages (komende 24 uur)

TLE

VersSource: Space-Track

Epoch: Sep 14, 2026, 06:52 UTC

1 66002U 25231H   26257.28624230 -.00000101  00000-0  49217-4 0  9996
2 66002  50.0046 216.0516 0000349  44.8684 315.2216 13.29328701 44747

Volg HULIANWANG DIGUI-94 in realtime met AllMySat

Download on the App Store